29.03.2024;12:00;86,731;
29.03.2024;11:45;86,731;
29.03.2024;11:30;86,730;
29.03.2024;11:15;86,731;
29.03.2024;11:00;86,731;
29.03.2024;10:45;86,730;
29.03.2024;10:30;86,730;
29.03.2024;10:15;86,729;
29.03.2024;10:00;86,730;
29.03.2024;09:45;86,731;
29.03.2024;09:30;86,730;
29.03.2024;09:15;86,730;
29.03.2024;09:00;86,729;
29.03.2024;08:45;86,729;
29.03.2024;08:30;86,729;
29.03.2024;08:15;86,730;
29.03.2024;08:00;86,730;
29.03.2024;07:45;86,729;
29.03.2024;07:30;86,729;
29.03.2024;07:15;86,729;
29.03.2024;07:00;86,729;
29.03.2024;06:45;86,730;
29.03.2024;06:30;86,729;
29.03.2024;06:15;86,730;
29.03.2024;06:00;86,729;
29.03.2024;05:45;86,728;
29.03.2024;05:30;86,729;
29.03.2024;05:15;86,729;
29.03.2024;05:00;86,729;
29.03.2024;04:45;86,729;
29.03.2024;04:30;86,729;
29.03.2024;04:15;86,728;
29.03.2024;04:00;86,728;
29.03.2024;03:45;86,728;
29.03.2024;03:30;86,728;
29.03.2024;03:15;86,728;
29.03.2024;03:00;86,728;
29.03.2024;02:45;86,728;
29.03.2024;02:30;86,728;
29.03.2024;02:15;86,728;
29.03.2024;02:00;86,728;
29.03.2024;01:45;86,728;
29.03.2024;01:30;86,728;
29.03.2024;01:15;86,728;
29.03.2024;01:00;86,727;
29.03.2024;00:45;86,727;
29.03.2024;00:30;86,727;
29.03.2024;00:15;86,728;
29.03.2024;00:00;86,727;
28.03.2024;23:45;86,727;
28.03.2024;23:30;86,728;
28.03.2024;23:15;86,727;
28.03.2024;23:00;86,727;
28.03.2024;22:45;86,727;
28.03.2024;22:30;86,728;
28.03.2024;22:15;86,727;
28.03.2024;22:00;86,727;
28.03.2024;21:45;86,727;
28.03.2024;21:30;86,727;
28.03.2024;21:15;86,727;
28.03.2024;21:00;86,727;
28.03.2024;20:45;86,728;
28.03.2024;20:30;86,726;
28.03.2024;20:15;86,726;
28.03.2024;20:00;86,727;
28.03.2024;19:45;86,726;
28.03.2024;19:30;86,727;
28.03.2024;19:15;86,727;
28.03.2024;19:00;86,727;
28.03.2024;18:45;86,726;
28.03.2024;18:30;86,727;
28.03.2024;18:15;86,727;
28.03.2024;18:00;86,727;
28.03.2024;17:45;86,728;
28.03.2024;17:30;86,727;
28.03.2024;17:15;86,727;
28.03.2024;17:00;86,728;
28.03.2024;16:45;86,727;
28.03.2024;16:30;86,727;
28.03.2024;16:15;86,728;
28.03.2024;16:00;86,726;
28.03.2024;15:45;86,726;
28.03.2024;15:30;86,727;
28.03.2024;15:15;86,726;
28.03.2024;15:00;86,727;
28.03.2024;14:45;86,727;
28.03.2024;14:30;86,727;
28.03.2024;14:15;86,727;
28.03.2024;14:00;86,726;
28.03.2024;13:45;86,725;
28.03.2024;13:30;86,727;
28.03.2024;13:15;86,726;
28.03.2024;13:00;86,726;
28.03.2024;12:45;86,727;
28.03.2024;12:30;86,726;
28.03.2024;12:15;86,725;
28.03.2024;12:00;86,725;
28.03.2024;11:45;86,724;
28.03.2024;11:30;86,725;
28.03.2024;11:15;86,724;
28.03.2024;11:00;86,725;
28.03.2024;10:45;86,725;
28.03.2024;10:30;86,724;
28.03.2024;10:15;86,724;
28.03.2024;10:00;86,725;
28.03.2024;09:45;86,725;
28.03.2024;09:30;86,725;
28.03.2024;09:15;86,725;
28.03.2024;09:00;86,725;
28.03.2024;08:45;86,725;
28.03.2024;08:30;86,724;
28.03.2024;08:15;86,725;
28.03.2024;08:00;86,725;
28.03.2024;07:45;86,725;
28.03.2024;07:30;86,725;
28.03.2024;07:15;86,724;
28.03.2024;07:00;86,725;
28.03.2024;06:45;86,724;
28.03.2024;06:30;86,724;
28.03.2024;06:15;86,725;
28.03.2024;06:00;86,724;
28.03.2024;05:45;86,724;
28.03.2024;05:30;86,725;
28.03.2024;05:15;86,725;
28.03.2024;05:00;86,724;
28.03.2024;04:45;86,724;
28.03.2024;04:30;86,725;
28.03.2024;04:15;86,724;
28.03.2024;04:00;86,725;
28.03.2024;03:45;86,724;
28.03.2024;03:30;86,725;
28.03.2024;03:15;86,724;
28.03.2024;03:00;86,724;
28.03.2024;02:45;86,724;
28.03.2024;02:30;86,724;
28.03.2024;02:15;86,725;
28.03.2024;02:00;86,725;
28.03.2024;01:45;86,724;
28.03.2024;01:30;86,724;
28.03.2024;01:15;86,724;
28.03.2024;01:00;86,724;
28.03.2024;00:45;86,724;
28.03.2024;00:30;86,724;
28.03.2024;00:15;86,724;
28.03.2024;00:00;86,724;
27.03.2024;23:45;86,723;
27.03.2024;23:30;86,724;
27.03.2024;23:15;86,723;
27.03.2024;23:00;86,723;
27.03.2024;22:45;86,724;
27.03.2024;22:30;86,723;
27.03.2024;22:15;86,723;
27.03.2024;22:00;86,723;
27.03.2024;21:45;86,724;
27.03.2024;21:30;86,723;
27.03.2024;21:15;86,723;
27.03.2024;21:00;86,724;
27.03.2024;20:45;86,723;
27.03.2024;20:30;86,723;
27.03.2024;20:15;86,723;
27.03.2024;20:00;86,723;
27.03.2024;19:45;86,723;
27.03.2024;19:30;86,724;
27.03.2024;19:15;86,723;
27.03.2024;19:00;86,724;
27.03.2024;18:45;86,722;
27.03.2024;18:30;86,723;
27.03.2024;18:15;86,723;
27.03.2024;18:00;86,724;
27.03.2024;17:45;86,723;
27.03.2024;17:30;86,723;
27.03.2024;17:15;86,723;
27.03.2024;17:00;86,723;
27.03.2024;16:45;86,723;
27.03.2024;16:30;86,723;
27.03.2024;16:15;86,724;
27.03.2024;16:00;86,723;
27.03.2024;15:45;86,722;
27.03.2024;15:30;86,723;
27.03.2024;15:15;86,724;
27.03.2024;15:00;86,723;
27.03.2024;14:45;86,724;
27.03.2024;14:30;86,723;
27.03.2024;14:15;86,722;
27.03.2024;14:00;86,722;
27.03.2024;13:45;86,722;
27.03.2024;13:30;86,723;
27.03.2024;13:15;86,723;
27.03.2024;13:00;86,723;
27.03.2024;12:45;86,723;
27.03.2024;12:30;86,722;
27.03.2024;12:15;86,722;
27.03.2024;12:00;86,722;
27.03.2024;11:45;86,722;
27.03.2024;11:30;86,722;
27.03.2024;11:15;86,722;
27.03.2024;11:00;86,722;
27.03.2024;10:45;86,722;
27.03.2024;10:30;86,722;
27.03.2024;10:15;86,721;
27.03.2024;10:00;86,722;
27.03.2024;09:45;86,722;
27.03.2024;09:30;86,721;
27.03.2024;09:15;86,721;
27.03.2024;09:00;86,721;
27.03.2024;08:45;86,721;
27.03.2024;08:30;86,721;
27.03.2024;08:15;86,720;
27.03.2024;08:00;86,721;
27.03.2024;07:45;86,721;
27.03.2024;07:30;86,721;
27.03.2024;07:15;86,720;
27.03.2024;07:00;86,720;
27.03.2024;06:45;86,720;
27.03.2024;06:30;86,720;
27.03.2024;06:15;86,721;
27.03.2024;06:00;86,720;
27.03.2024;05:45;86,720;
27.03.2024;05:30;86,720;
27.03.2024;05:15;86,719;
27.03.2024;05:00;86,720;
27.03.2024;04:45;86,720;
27.03.2024;04:30;86,720;
27.03.2024;04:15;86,719;
27.03.2024;04:00;86,719;
27.03.2024;03:45;86,719;
27.03.2024;03:30;86,719;
27.03.2024;03:15;86,719;
27.03.2024;03:00;86,719;
27.03.2024;02:45;86,719;
27.03.2024;02:30;86,719;
27.03.2024;02:15;86,719;
27.03.2024;02:00;86,719;
27.03.2024;01:45;86,719;
27.03.2024;01:30;86,718;
27.03.2024;01:15;86,718;
27.03.2024;01:00;86,718;
27.03.2024;00:45;86,719;
27.03.2024;00:30;86,718;
27.03.2024;00:15;86,719;
27.03.2024;00:00;86,718;
26.03.2024;23:45;86,718;
26.03.2024;23:30;86,717;
26.03.2024;23:15;86,718;
26.03.2024;23:00;86,718;
26.03.2024;22:45;86,719;
26.03.2024;22:30;86,719;
26.03.2024;22:15;86,718;
26.03.2024;22:00;86,718;
26.03.2024;21:45;86,718;
26.03.2024;21:30;86,719;
26.03.2024;21:15;86,718;
26.03.2024;21:00;86,718;
26.03.2024;20:45;86,718;
26.03.2024;20:30;86,718;
26.03.2024;20:15;86,718;
26.03.2024;20:00;86,718;
26.03.2024;19:45;86,718;
26.03.2024;19:30;86,718;
26.03.2024;19:15;86,717;
26.03.2024;19:00;86,718;
26.03.2024;18:45;86,718;
26.03.2024;18:30;86,718;
26.03.2024;18:15;86,718;
26.03.2024;18:00;86,717;
26.03.2024;17:45;86,718;
26.03.2024;17:30;86,717;
26.03.2024;17:15;86,717;
26.03.2024;17:00;86,718;
26.03.2024;16:45;86,718;
26.03.2024;16:30;86,718;
26.03.2024;16:15;86,717;
26.03.2024;16:00;86,717;
26.03.2024;15:45;86,717;
26.03.2024;15:30;86,717;
26.03.2024;15:15;86,718;
26.03.2024;15:00;86,718;
26.03.2024;14:45;86,718;
26.03.2024;14:30;86,717;
26.03.2024;14:15;86,717;
26.03.2024;14:00;86,718;
26.03.2024;13:45;86,717;
26.03.2024;13:30;86,717;
26.03.2024;13:15;86,716;
26.03.2024;13:00;86,717;
26.03.2024;12:45;86,716;
26.03.2024;12:30;86,717;
26.03.2024;12:15;86,716;
26.03.2024;12:00;86,716;
26.03.2024;11:45;86,716;
26.03.2024;11:30;86,716;
26.03.2024;11:15;86,715;
26.03.2024;11:00;86,716;
26.03.2024;10:45;86,716;
26.03.2024;10:30;86,716;
26.03.2024;10:15;86,716;
26.03.2024;10:00;86,716;
26.03.2024;09:45;86,715;
26.03.2024;09:30;86,716;
26.03.2024;09:15;86,716;
26.03.2024;09:00;86,716;
26.03.2024;08:45;86,716;
26.03.2024;08:30;86,716;
26.03.2024;08:15;86,716;
26.03.2024;08:00;86,715;
26.03.2024;07:45;86,716;
26.03.2024;07:30;86,716;
26.03.2024;07:15;86,716;
26.03.2024;07:00;86,715;
26.03.2024;06:45;86,716;
26.03.2024;06:30;86,715;
26.03.2024;06:15;86,716;
26.03.2024;06:00;86,716;
26.03.2024;05:45;86,716;
26.03.2024;05:30;86,716;
26.03.2024;05:15;86,716;
26.03.2024;05:00;86,715;
26.03.2024;04:45;86,716;
26.03.2024;04:30;86,715;
26.03.2024;04:15;86,716;
26.03.2024;04:00;86,716;
26.03.2024;03:45;86,716;
26.03.2024;03:30;86,715;
26.03.2024;03:15;86,715;
26.03.2024;03:00;86,715;
26.03.2024;02:45;86,715;
26.03.2024;02:30;86,715;
26.03.2024;02:15;86,715;
26.03.2024;02:00;86,715;
26.03.2024;01:45;86,715;
26.03.2024;01:30;86,715;
26.03.2024;01:15;86,715;
26.03.2024;01:00;86,715;
26.03.2024;00:45;86,715;
26.03.2024;00:30;86,715;
26.03.2024;00:15;86,715;
26.03.2024;00:00;86,714;
25.03.2024;23:45;86,714;
25.03.2024;23:30;86,715;
25.03.2024;23:15;86,714;
25.03.2024;23:00;86,714;
25.03.2024;22:45;86,715;
25.03.2024;22:30;86,714;
25.03.2024;22:15;86,714;
25.03.2024;22:00;86,714;
25.03.2024;21:45;86,714;
25.03.2024;21:30;86,714;
25.03.2024;21:15;86,714;
25.03.2024;21:00;86,714;
25.03.2024;20:45;86,714;
25.03.2024;20:30;86,714;
25.03.2024;20:15;86,713;
25.03.2024;20:00;86,714;
25.03.2024;19:45;86,714;
25.03.2024;19:30;86,713;
25.03.2024;19:15;86,714;
25.03.2024;19:00;86,714;
25.03.2024;18:45;86,714;
25.03.2024;18:30;86,713;
25.03.2024;18:15;86,713;
25.03.2024;18:00;86,713;
25.03.2024;17:45;86,714;
25.03.2024;17:30;86,713;
25.03.2024;17:15;86,714;
25.03.2024;17:00;86,714;
25.03.2024;16:45;86,713;
25.03.2024;16:30;86,713;
25.03.2024;16:15;86,713;
25.03.2024;16:00;86,713;
25.03.2024;15:45;86,713;
25.03.2024;15:30;86,713;
25.03.2024;15:15;86,713;
25.03.2024;15:00;86,713;
25.03.2024;14:45;86,713;
25.03.2024;14:30;86,713;
25.03.2024;14:15;86,713;
25.03.2024;14:00;86,713;
25.03.2024;13:45;86,713;
25.03.2024;13:30;86,713;
25.03.2024;13:15;86,712;
25.03.2024;13:00;86,713;
25.03.2024;12:45;86,713;
25.03.2024;12:30;86,713;
25.03.2024;12:15;86,712;
25.03.2024;12:00;86,712;
25.03.2024;11:45;86,712;
25.03.2024;11:30;86,712;
25.03.2024;11:15;86,712;
25.03.2024;11:00;86,712;
25.03.2024;10:45;86,712;
25.03.2024;10:30;86,712;
25.03.2024;10:15;86,712;
25.03.2024;10:00;86,712;
25.03.2024;09:45;86,711;
25.03.2024;09:30;86,711;
25.03.2024;09:15;86,712;
25.03.2024;09:00;86,711;
25.03.2024;08:45;86,712;
25.03.2024;08:30;86,711;
25.03.2024;08:15;86,712;
25.03.2024;08:00;86,711;
25.03.2024;07:45;86,711;
25.03.2024;07:30;86,711;
25.03.2024;07:15;86,711;
25.03.2024;07:00;86,712;
25.03.2024;06:45;86,712;
25.03.2024;06:30;86,712;
25.03.2024;06:15;86,711;
25.03.2024;06:00;86,711;
25.03.2024;05:45;86,711;
25.03.2024;05:30;86,711;
25.03.2024;05:15;86,711;
25.03.2024;05:00;86,711;
25.03.2024;04:45;86,711;
25.03.2024;04:30;86,711;
25.03.2024;04:15;86,711;
25.03.2024;04:00;86,711;
25.03.2024;03:45;86,711;
25.03.2024;03:30;86,711;
25.03.2024;03:15;86,711;
25.03.2024;03:00;86,711;
25.03.2024;02:45;86,711;
25.03.2024;02:30;86,711;
25.03.2024;02:15;86,711;
25.03.2024;02:00;86,711;
25.03.2024;01:45;86,711;
25.03.2024;01:30;86,711;
25.03.2024;01:15;86,711;
25.03.2024;01:00;86,711;
25.03.2024;00:45;86,710;
25.03.2024;00:30;86,711;
25.03.2024;00:15;86,711;
25.03.2024;00:00;86,711;
24.03.2024;23:45;86,710;
24.03.2024;23:30;86,710;
24.03.2024;23:15;86,710;
24.03.2024;23:00;86,711;
24.03.2024;22:45;86,711;
24.03.2024;22:30;86,710;
24.03.2024;22:15;86,710;
24.03.2024;22:00;86,710;
24.03.2024;21:45;86,710;
24.03.2024;21:30;86,710;
24.03.2024;21:15;86,711;
24.03.2024;21:00;86,710;
24.03.2024;20:45;86,710;
24.03.2024;20:30;86,710;
24.03.2024;20:15;86,710;
24.03.2024;20:00;86,710;
24.03.2024;19:45;86,710;
24.03.2024;19:30;86,710;
24.03.2024;19:15;86,710;
24.03.2024;19:00;86,710;
24.03.2024;18:45;86,710;
24.03.2024;18:30;86,710;
24.03.2024;18:15;86,710;
24.03.2024;18:00;86,710;
24.03.2024;17:45;86,710;
24.03.2024;17:30;86,710;
24.03.2024;17:15;86,710;
24.03.2024;17:00;86,710;
24.03.2024;16:45;86,710;
24.03.2024;16:30;86,710;
24.03.2024;16:15;86,710;
24.03.2024;16:00;86,710;
24.03.2024;15:45;86,710;
24.03.2024;15:30;86,710;
24.03.2024;15:15;86,710;
24.03.2024;15:00;86,709;
24.03.2024;14:45;86,709;
24.03.2024;14:30;86,709;
24.03.2024;14:15;86,710;
24.03.2024;14:00;86,709;
24.03.2024;13:45;86,709;
24.03.2024;13:30;86,709;
24.03.2024;13:15;86,709;
24.03.2024;13:00;86,709;
24.03.2024;12:45;86,709;
24.03.2024;12:30;86,710;
24.03.2024;12:15;86,709;
24.03.2024;12:00;86,709;
24.03.2024;11:45;86,708;
24.03.2024;11:30;86,709;
24.03.2024;11:15;86,709;
24.03.2024;11:00;86,708;
24.03.2024;10:45;86,708;
24.03.2024;10:30;86,708;
24.03.2024;10:15;86,709;
24.03.2024;10:00;86,708;
24.03.2024;09:45;86,709;
24.03.2024;09:30;86,708;
24.03.2024;09:15;86,708;
24.03.2024;09:00;86,708;
24.03.2024;08:45;86,708;
24.03.2024;08:30;86,708;
24.03.2024;08:15;86,708;
24.03.2024;08:00;86,708;
24.03.2024;07:45;86,708;
24.03.2024;07:30;86,707;
24.03.2024;07:15;86,707;
24.03.2024;07:00;86,708;
24.03.2024;06:45;86,708;
24.03.2024;06:30;86,708;
24.03.2024;06:15;86,708;
24.03.2024;06:00;86,708;
24.03.2024;05:45;86,707;
24.03.2024;05:30;86,707;
24.03.2024;05:15;86,707;
24.03.2024;05:00;86,708;
24.03.2024;04:45;86,707;
24.03.2024;04:30;86,707;
24.03.2024;04:15;86,708;
24.03.2024;04:00;86,708;
24.03.2024;03:45;86,707;
24.03.2024;03:30;86,707;
24.03.2024;03:15;86,707;
24.03.2024;03:00;86,707;
24.03.2024;02:45;86,707;
24.03.2024;02:30;86,707;
24.03.2024;02:15;86,707;
24.03.2024;02:00;86,707;
24.03.2024;01:45;86,706;
24.03.2024;01:30;86,707;
24.03.2024;01:15;86,707;
24.03.2024;01:00;86,707;
24.03.2024;00:45;86,707;
24.03.2024;00:30;86,707;
24.03.2024;00:15;86,706;
24.03.2024;00:00;86,706;
23.03.2024;23:45;86,707;
23.03.2024;23:30;86,707;
23.03.2024;23:15;86,706;
23.03.2024;23:00;86,706;
23.03.2024;22:45;86,706;
23.03.2024;22:30;86,706;
23.03.2024;22:15;86,706;
23.03.2024;22:00;86,706;
23.03.2024;21:45;86,706;
23.03.2024;21:30;86,706;
23.03.2024;21:15;86,706;
23.03.2024;21:00;86,705;
23.03.2024;20:45;86,705;
23.03.2024;20:30;86,705;
23.03.2024;20:15;86,705;
23.03.2024;20:00;86,705;
23.03.2024;19:45;86,705;
23.03.2024;19:30;86,705;
23.03.2024;19:15;86,705;
23.03.2024;19:00;86,704;
23.03.2024;18:45;86,704;
23.03.2024;18:30;86,705;
23.03.2024;18:15;86,704;
23.03.2024;18:00;86,704;
23.03.2024;17:45;86,704;
23.03.2024;17:30;86,704;
23.03.2024;17:15;86,704;
23.03.2024;17:00;86,704;
23.03.2024;16:45;86,704;
23.03.2024;16:30;86,704;
23.03.2024;16:15;86,704;
23.03.2024;16:00;86,704;
23.03.2024;15:45;86,704;
23.03.2024;15:30;86,704;
23.03.2024;15:15;86,704;
23.03.2024;15:00;86,703;
23.03.2024;14:45;86,704;
23.03.2024;14:30;86,703;
23.03.2024;14:15;86,704;
23.03.2024;14:00;86,703;
23.03.2024;13:45;86,703;
23.03.2024;13:30;86,703;
23.03.2024;13:15;86,703;
23.03.2024;13:00;86,703;
23.03.2024;12:45;86,702;
23.03.2024;12:30;86,703;
23.03.2024;12:15;86,703;
23.03.2024;12:00;86,703;
23.03.2024;11:45;86,703;
23.03.2024;11:30;86,702;
23.03.2024;11:15;86,702;
23.03.2024;11:00;86,703;
23.03.2024;10:45;86,703;
23.03.2024;10:30;86,703;
23.03.2024;10:15;86,703;
23.03.2024;10:00;86,702;
23.03.2024;09:45;86,702;
23.03.2024;09:30;86,702;
23.03.2024;09:15;86,702;
23.03.2024;09:00;86,702;
23.03.2024;08:45;86,702;
23.03.2024;08:30;86,702;
23.03.2024;08:15;86,702;
23.03.2024;08:00;86,702;
23.03.2024;07:45;86,701;
23.03.2024;07:30;86,702;
23.03.2024;07:15;86,702;
23.03.2024;07:00;86,702;
23.03.2024;06:45;86,702;
23.03.2024;06:30;86,702;
23.03.2024;06:15;86,701;
23.03.2024;06:00;86,701;
23.03.2024;05:45;86,702;
23.03.2024;05:30;86,701;
23.03.2024;05:15;86,701;
23.03.2024;05:00;86,702;
23.03.2024;04:45;86,701;
23.03.2024;04:30;86,701;
23.03.2024;04:15;86,702;
23.03.2024;04:00;86,702;
23.03.2024;03:45;86,701;
23.03.2024;03:30;86,702;
23.03.2024;03:15;86,701;
23.03.2024;03:00;86,701;
23.03.2024;02:45;86,702;
23.03.2024;02:30;86,702;
23.03.2024;02:15;86,702;
23.03.2024;02:00;86,702;
23.03.2024;01:45;86,701;
23.03.2024;01:30;86,701;
23.03.2024;01:15;86,701;
23.03.2024;01:00;86,702;
23.03.2024;00:45;86,701;
23.03.2024;00:30;86,701;
23.03.2024;00:15;86,701;
23.03.2024;00:00;86,701;
22.03.2024;23:45;86,701;
22.03.2024;23:30;86,701;
22.03.2024;23:15;86,701;
22.03.2024;23:00;86,701;
22.03.2024;22:45;86,700;
22.03.2024;22:30;86,700;
22.03.2024;22:15;86,700;
22.03.2024;22:00;86,701;
22.03.2024;21:45;86,701;
22.03.2024;21:30;86,701;
22.03.2024;21:15;86,701;
22.03.2024;21:00;86,700;
22.03.2024;20:45;86,700;
22.03.2024;20:30;86,701;
22.03.2024;20:15;86,700;
22.03.2024;20:00;86,701;
22.03.2024;19:45;86,701;
22.03.2024;19:30;86,701;
22.03.2024;19:15;86,701;
22.03.2024;19:00;86,701;
22.03.2024;18:45;86,701;
22.03.2024;18:30;86,702;
22.03.2024;18:15;86,701;
22.03.2024;18:00;86,701;
22.03.2024;17:45;86,701;
22.03.2024;17:30;86,701;
22.03.2024;17:15;86,700;
22.03.2024;17:00;86,700;
22.03.2024;16:45;86,700;
22.03.2024;16:30;86,700;
22.03.2024;16:15;86,700;
22.03.2024;16:00;86,700;
22.03.2024;15:45;86,700;
22.03.2024;15:30;86,699;
22.03.2024;15:15;86,699;
22.03.2024;15:00;86,699;
22.03.2024;14:45;86,699;
22.03.2024;14:30;86,699;
22.03.2024;14:15;86,699;
22.03.2024;14:00;86,699;
22.03.2024;13:45;86,698;
22.03.2024;13:30;86,699;
22.03.2024;13:15;86,699;
22.03.2024;13:00;86,699;
22.03.2024;12:45;86,699;
22.03.2024;12:30;86,699;
22.03.2024;12:15;86,698;
22.03.2024;12:00;86,698;
22.03.2024;11:45;86,697;
22.03.2024;11:30;86,698;
22.03.2024;11:15;86,698;
22.03.2024;11:00;86,697;
22.03.2024;10:45;86,698;
22.03.2024;10:30;86,698;
22.03.2024;10:15;86,697;
22.03.2024;10:00;86,697;
22.03.2024;09:45;86,697;
22.03.2024;09:30;86,696;
22.03.2024;09:15;86,696;
22.03.2024;09:00;86,697;
22.03.2024;08:45;86,696;
22.03.2024;08:30;86,697;
22.03.2024;08:15;86,697;
22.03.2024;08:00;86,695;
22.03.2024;07:45;86,697;
22.03.2024;07:30;86,695;
22.03.2024;07:15;86,695;
22.03.2024;07:00;86,695;
22.03.2024;06:45;86,696;
22.03.2024;06:30;86,696;
22.03.2024;06:15;86,696;
22.03.2024;06:00;86,695;
22.03.2024;05:45;86,695;
22.03.2024;05:30;86,695;
22.03.2024;05:15;86,695;
22.03.2024;05:00;86,696;
22.03.2024;04:45;86,696;
22.03.2024;04:30;86,695;
22.03.2024;04:15;86,695;
22.03.2024;04:00;86,695;
22.03.2024;03:45;86,695;
22.03.2024;03:30;86,695;
22.03.2024;03:15;86,695;
22.03.2024;03:00;86,695;
22.03.2024;02:45;86,694;
22.03.2024;02:30;86,694;
22.03.2024;02:15;86,695;
22.03.2024;02:00;86,695;
22.03.2024;01:45;86,694;
22.03.2024;01:30;86,694;
22.03.2024;01:15;86,694;
22.03.2024;01:00;86,695;
22.03.2024;00:45;86,694;
22.03.2024;00:30;86,695;
22.03.2024;00:15;86,695;
22.03.2024;00:00;86,694;
21.03.2024;23:45;86,694;
21.03.2024;23:30;86,694;
21.03.2024;23:15;86,694;
21.03.2024;23:00;86,694;
21.03.2024;22:45;86,694;
21.03.2024;22:30;86,695;
21.03.2024;22:15;86,694;
21.03.2024;22:00;86,694;
21.03.2024;21:45;86,694;
21.03.2024;21:30;86,694;
21.03.2024;21:15;86,694;
21.03.2024;21:00;86,694;
21.03.2024;20:45;86,694;
21.03.2024;20:30;86,693;
21.03.2024;20:15;86,693;
21.03.2024;20:00;86,694;
21.03.2024;19:45;86,694;
21.03.2024;19:30;86,695;
21.03.2024;19:15;86,694;
21.03.2024;19:00;86,694;
21.03.2024;18:45;86,693;
21.03.2024;18:30;86,693;
21.03.2024;18:15;86,693;
21.03.2024;18:00;86,694;
21.03.2024;17:45;86,694;
21.03.2024;17:30;86,694;
21.03.2024;17:15;86,693;
21.03.2024;17:00;86,693;
21.03.2024;16:45;86,693;
21.03.2024;16:30;86,693;
21.03.2024;16:15;86,693;
21.03.2024;16:00;86,693;
21.03.2024;15:45;86,693;
21.03.2024;15:30;86,692;
21.03.2024;15:15;86,692;
21.03.2024;15:00;86,692;
21.03.2024;14:45;86,693;
21.03.2024;14:30;86,693;
21.03.2024;14:15;86,692;
21.03.2024;14:00;86,692;
21.03.2024;13:45;86,692;
21.03.2024;13:30;86,692;
21.03.2024;13:15;86,693;
21.03.2024;13:00;86,692;
21.03.2024;12:45;86,692;
21.03.2024;12:30;86,692;
21.03.2024;12:15;86,692;
21.03.2024;12:00;86,692;
21.03.2024;11:45;86,692;
21.03.2024;11:30;86,693;
21.03.2024;11:15;86,692;
21.03.2024;11:00;86,692;
21.03.2024;10:45;86,691;
21.03.2024;10:30;86,692;
21.03.2024;10:15;86,692;
21.03.2024;10:00;86,692;
21.03.2024;09:45;86,692;
21.03.2024;09:30;86,692;
21.03.2024;09:15;86,692;
21.03.2024;09:00;86,691;
21.03.2024;08:45;86,692;
21.03.2024;08:30;86,692;
21.03.2024;08:15;86,692;
21.03.2024;08:00;86,691;
21.03.2024;07:45;86,691;
21.03.2024;07:30;86,692;
21.03.2024;07:15;86,691;
21.03.2024;07:00;86,691;
21.03.2024;06:45;86,692;
21.03.2024;06:30;86,691;
21.03.2024;06:15;86,692;
21.03.2024;06:00;86,691;
21.03.2024;05:45;86,691;
21.03.2024;05:30;86,690;
21.03.2024;05:15;86,690;
21.03.2024;05:00;86,691;
21.03.2024;04:45;86,690;
21.03.2024;04:30;86,690;
21.03.2024;04:15;86,690;
21.03.2024;04:00;86,690;
21.03.2024;03:45;86,690;
21.03.2024;03:30;86,690;
21.03.2024;03:15;86,690;
21.03.2024;03:00;86,690;
21.03.2024;02:45;86,690;
21.03.2024;02:30;86,690;
21.03.2024;02:15;86,689;
21.03.2024;02:00;86,689;
21.03.2024;01:45;86,690;
21.03.2024;01:30;86,690;
21.03.2024;01:15;86,689;
21.03.2024;01:00;86,690;
21.03.2024;00:45;86,689;
21.03.2024;00:30;86,689;
21.03.2024;00:15;86,688;
21.03.2024;00:00;86,688;
20.03.2024;23:45;86,688;
20.03.2024;23:30;86,688;
20.03.2024;23:15;86,688;
20.03.2024;23:00;86,688;
20.03.2024;22:45;86,689;
20.03.2024;22:30;86,687;
20.03.2024;22:15;86,688;
20.03.2024;22:00;86,688;
20.03.2024;21:45;86,687;
20.03.2024;21:30;86,688;
20.03.2024;21:15;86,688;
20.03.2024;21:00;86,688;
20.03.2024;20:45;86,688;
20.03.2024;20:30;86,687;
20.03.2024;20:15;86,687;
20.03.2024;20:00;86,687;
20.03.2024;19:45;86,687;
20.03.2024;19:30;86,686;
20.03.2024;19:15;86,687;
20.03.2024;19:00;86,686;
20.03.2024;18:45;86,686;
20.03.2024;18:30;86,687;
20.03.2024;18:15;86,686;
20.03.2024;18:00;86,687;
20.03.2024;17:45;86,687;
20.03.2024;17:30;86,687;
20.03.2024;17:15;86,687;
20.03.2024;17:00;86,687;
20.03.2024;16:45;86,687;
20.03.2024;16:30;86,687;
20.03.2024;16:15;86,686;
20.03.2024;16:00;86,687;
20.03.2024;15:45;86,687;
20.03.2024;15:30;86,687;
20.03.2024;15:15;86,687;
20.03.2024;15:00;86,687;
20.03.2024;14:45;86,686;
20.03.2024;14:30;86,687;
20.03.2024;14:15;86,686;
20.03.2024;14:00;86,687;
20.03.2024;13:45;86,687;
20.03.2024;13:30;86,686;
20.03.2024;13:15;86,686;
20.03.2024;13:00;86,686;
20.03.2024;12:45;86,687;
20.03.2024;12:30;86,686;
20.03.2024;12:15;86,687;
20.03.2024;12:00;86,686;
20.03.2024;11:45;86,686;
20.03.2024;11:30;86,686;
20.03.2024;11:15;86,687;
20.03.2024;11:00;86,686;
20.03.2024;10:45;86,686;
20.03.2024;10:30;86,686;
20.03.2024;10:15;86,685;
20.03.2024;10:00;86,686;
20.03.2024;09:45;86,686;
20.03.2024;09:30;86,687;
20.03.2024;09:15;86,687;
20.03.2024;09:00;86,686;
20.03.2024;08:45;86,686;
20.03.2024;08:30;86,686;
20.03.2024;08:15;86,686;
20.03.2024;08:00;86,686;
20.03.2024;07:45;86,686;
20.03.2024;07:30;86,686;
20.03.2024;07:15;86,686;
20.03.2024;07:00;86,686;
20.03.2024;06:45;86,686;
20.03.2024;06:30;86,686;
20.03.2024;06:15;86,686;
20.03.2024;06:00;86,686;
20.03.2024;05:45;86,686;
20.03.2024;05:30;86,685;
20.03.2024;05:15;86,686;
20.03.2024;05:00;86,686;
20.03.2024;04:45;86,686;
20.03.2024;04:30;86,686;
20.03.2024;04:15;86,685;
20.03.2024;04:00;86,686;
20.03.2024;03:45;86,685;
20.03.2024;03:30;86,686;
20.03.2024;03:15;86,685;
20.03.2024;03:00;86,686;
20.03.2024;02:45;86,686;
20.03.2024;02:30;86,685;
20.03.2024;02:15;86,685;
20.03.2024;02:00;86,685;
20.03.2024;01:45;86,685;
20.03.2024;01:30;86,685;
20.03.2024;01:15;86,685;
20.03.2024;01:00;86,685;
20.03.2024;00:45;86,685;
20.03.2024;00:30;86,684;
20.03.2024;00:15;86,684;
20.03.2024;00:00;86,685;
19.03.2024;23:45;86,685;
19.03.2024;23:30;86,684;
19.03.2024;23:15;86,685;
19.03.2024;23:00;86,684;
19.03.2024;22:45;86,684;
19.03.2024;22:30;86,684;
19.03.2024;22:15;86,684;
19.03.2024;22:00;86,684;
19.03.2024;21:45;86,684;
19.03.2024;21:30;86,684;